User: anonymous   Login
Location: Peebles
(55.6412°N, 3.1714°W)
Time: 06:28:05
(UTC+00:00)
Language:

Cosmos 1400 Rocket - Orbit

View from above orbital plane
View from above orbital plane
View from above satellite
View from above satellite

Ground track
Ground track

The orbit data is extracted from the following two-line orbital elements,

1 13403U 82079B   21336.58361926  .00001325  00000-0  84503-4 0  9997
2 13403  81.1702 201.6770 0033018 304.4933  55.3173 15.07611234141916
Epoch (UTC): 02 December 2021 14:00:24
Eccentricity: 0.0033018
inclination: 81.1702°
perigee height: 520 km
apogee height: 566 km
right ascension of ascending node: 201.6770°
argument of perigee: 304.4933°
revolutions per day: 15.07611234
mean anomaly at epoch: 55.3173°
orbit number at epoch: 14191

The dashed part of the orbit path shows where the satellite is in the earth's shadow,  

DLR